 ,�O�C���x[��],����1,�O�C���x[��],����2,���ԉ��x[��],����3,���Ԏ��x[��],����4,�m��2(��󒲎�)���x[��],����5,����[��],����6
2002/11/4 0:00,7.5 ,0,67,0,20.6 ,0,57.0 ,0,19.3 ,0,,1
2002/11/4 0:15,7.2 ,2,69,2,20.4 ,2,55.5 ,2,19.2 ,2,,1
2002/11/4 0:30,6.9 ,0,71,0,20.1 ,0,54.0 ,0,19.1 ,0,,1
2002/11/4 0:45,6.8 ,2,73,2,20.0 ,2,53.5 ,2,19.0 ,2,,1
2002/11/4 1:00,6.7 ,0,74,0,19.8 ,0,53.0 ,0,18.9 ,0,,1
2002/11/4 1:15,6.7 ,2,77,2,19.8 ,2,52.0 ,2,18.8 ,2,,1
2002/11/4 1:30,6.6 ,0,79,0,19.7 ,0,51.0 ,0,18.7 ,0,,1
2002/11/4 1:45,6.7 ,2,81,2,19.6 ,2,51.0 ,2,18.6 ,2,,1
2002/11/4 2:00,6.7 ,0,83,0,19.4 ,0,51.0 ,0,18.5 ,0,,1
2002/11/4 2:15,6.7 ,2,83,2,19.4 ,2,50.5 ,2,18.5 ,2,,1
2002/11/4 2:30,6.6 ,0,82,0,19.3 ,0,50.0 ,0,18.4 ,0,,1
2002/11/4 2:45,6.6 ,2,81,2,19.3 ,2,49.5 ,2,18.4 ,2,,1
2002/11/4 3:00,6.6 ,0,80,0,19.2 ,0,49.0 ,0,18.3 ,0,,1
2002/11/4 3:15,6.5 ,2,81,2,19.2 ,2,49.0 ,2,18.2 ,2,,1
2002/11/4 3:30,6.4 ,0,82,0,19.1 ,0,49.0 ,0,18.1 ,0,,1
2002/11/4 3:45,6.2 ,2,84,2,19.1 ,2,49.0 ,2,18.1 ,2,,1
2002/11/4 4:00,5.9 ,0,86,0,19.0 ,0,49.0 ,0,18.0 ,0,,1
2002/11/4 4:15,5.9 ,2,85,2,19.0 ,2,48.5 ,2,18.0 ,2,,1
2002/11/4 4:30,5.9 ,0,84,0,19.0 ,0,48.0 ,0,17.9 ,0,,1
2002/11/4 4:45,5.8 ,2,85,2,19.0 ,2,48.0 ,2,17.9 ,2,,1
2002/11/4 5:00,5.7 ,0,85,0,18.9 ,0,48.0 ,0,17.8 ,0,,1
2002/11/4 5:15,5.5 ,2,86,2,18.9 ,2,47.5 ,2,17.8 ,2,,1
2002/11/4 5:30,5.3 ,0,86,0,18.8 ,0,47.0 ,0,17.8 ,0,,1
2002/11/4 5:45,5.2 ,2,88,2,18.8 ,2,47.0 ,2,17.8 ,2,,1
2002/11/4 6:00,5.1 ,0,89,0,18.8 ,0,47.0 ,0,17.7 ,0,,1
2002/11/4 6:15,5.3 ,2,89,2,18.8 ,2,47.0 ,2,17.7 ,2,,1
2002/11/4 6:30,5.4 ,0,88,0,18.7 ,0,47.0 ,0,17.6 ,0,,1
2002/11/4 6:45,5.2 ,2,88,2,18.9 ,2,48.0 ,2,17.6 ,2,,1
2002/11/4 7:00,4.9 ,0,87,0,19.0 ,0,49.0 ,0,17.6 ,0,,1
2002/11/4 7:15,5.0 ,2,89,2,19.3 ,2,51.0 ,2,17.6 ,2,,1
2002/11/4 7:30,5.0 ,0,91,0,19.6 ,0,53.0 ,0,17.6 ,0,,1
2002/11/4 7:45,5.2 ,2,92,2,19.9 ,2,52.0 ,2,17.6 ,2,,1
2002/11/4 8:00,5.3 ,0,93,0,20.1 ,0,51.0 ,0,17.5 ,0,,1
2002/11/4 8:15,5.3 ,2,92,2,20.2 ,2,51.0 ,2,17.5 ,2,,1
2002/11/4 8:30,5.3 ,0,90,0,20.3 ,0,51.0 ,0,17.5 ,0,,1
2002/11/4 8:45,5.6 ,2,90,2,20.5 ,2,51.5 ,2,17.6 ,2,,1
2002/11/4 9:00,5.9 ,0,90,0,20.7 ,0,52.0 ,0,17.6 ,0,,1
2002/11/4 9:15,5.8 ,2,89,2,21.0 ,2,52.0 ,2,17.5 ,2,,1
2002/11/4 9:30,5.7 ,0,87,0,21.2 ,0,52.0 ,0,17.4 ,0,,1
2002/11/4 9:45,5.8 ,2,85,2,21.4 ,2,51.5 ,2,17.5 ,2,,1
2002/11/4 10:00,5.9 ,0,82,0,21.5 ,0,51.0 ,0,17.6 ,0,,1
2002/11/4 10:15,5.9 ,2,84,2,21.1 ,2,52.0 ,2,17.9 ,2,,1
2002/11/4 10:30,5.9 ,0,85,0,20.6 ,0,53.0 ,0,18.2 ,0,,1
2002/11/4 10:45,6.0 ,2,84,2,20.2 ,2,55.5 ,2,18.4 ,2,,1
2002/11/4 11:00,6.1 ,0,83,0,19.8 ,0,58.0 ,0,18.5 ,0,,1
2002/11/4 11:15,6.7 ,2,80,2,19.7 ,2,59.0 ,2,18.5 ,2,,1
2002/11/4 11:30,7.3 ,0,76,0,19.5 ,0,60.0 ,0,18.4 ,0,,1
2002/11/4 11:45,7.3 ,2,72,2,19.4 ,2,60.0 ,2,18.4 ,2,,1
2002/11/4 12:00,7.3 ,0,67,0,19.3 ,0,60.0 ,0,18.4 ,0,,1
2002/11/4 12:15,7.4 ,2,68,2,19.2 ,2,60.0 ,2,18.4 ,2,,1
2002/11/4 12:30,7.4 ,0,68,0,19.1 ,0,60.0 ,0,18.4 ,0,,1
2002/11/4 12:45,7.8 ,2,66,2,19.1 ,2,60.0 ,2,18.4 ,2,,1
2002/11/4 13:00,8.2 ,0,63,0,19.1 ,0,60.0 ,0,18.3 ,0,,1
2002/11/4 13:15,8.3 ,2,63,2,19.1 ,2,60.0 ,2,18.3 ,2,,1
2002/11/4 13:30,8.4 ,0,63,0,19.0 ,0,60.0 ,0,18.3 ,0,,1
2002/11/4 13:45,8.7 ,2,60,2,18.9 ,2,60.0 ,2,18.2 ,2,,1
2002/11/4 14:00,9.0 ,0,56,0,18.8 ,0,60.0 ,0,18.1 ,0,,1
2002/11/4 14:15,9.2 ,2,54,2,18.8 ,2,59.5 ,2,18.0 ,2,,1
2002/11/4 14:30,9.3 ,0,52,0,18.8 ,0,59.0 ,0,17.9 ,0,,1
2002/11/4 14:45,9.2 ,2,49,2,18.8 ,2,58.5 ,2,17.8 ,2,,1
2002/11/4 15:00,9.0 ,0,45,0,18.7 ,0,58.0 ,0,17.7 ,0,,1
2002/11/4 15:15,9.0 ,2,46,2,18.7 ,2,57.5 ,2,17.6 ,2,,1
2002/11/4 15:30,8.9 ,0,46,0,18.6 ,0,57.0 ,0,17.5 ,0,,1
2002/11/4 15:45,8.8 ,2,47,2,18.6 ,2,57.0 ,2,17.5 ,2,,1
2002/11/4 16:00,8.7 ,0,48,0,18.5 ,0,57.0 ,0,17.4 ,0,,1
2002/11/4 16:15,7.9 ,2,52,2,18.5 ,2,56.5 ,2,17.3 ,2,,1
2002/11/4 16:30,7.1 ,0,56,0,18.5 ,0,56.0 ,0,17.2 ,0,,1
2002/11/4 16:45,6.9 ,2,59,2,18.8 ,2,58.0 ,2,17.3 ,2,,1
2002/11/4 17:00,6.7 ,0,61,0,19.1 ,0,60.0 ,0,17.3 ,0,,1
2002/11/4 17:15,6.9 ,2,62,2,19.9 ,2,70.0 ,2,17.2 ,2,,1
2002/11/4 17:30,7.0 ,0,63,0,20.7 ,0,80.0 ,0,17.1 ,0,,1
2002/11/4 17:45,6.9 ,2,64,2,20.6 ,2,75.0 ,2,17.1 ,2,,1
2002/11/4 18:00,6.7 ,0,64,0,20.5 ,0,70.0 ,0,17.1 ,0,,1
2002/11/4 18:15,6.6 ,2,65,2,20.4 ,2,66.5 ,2,17.2 ,2,,1
2002/11/4 18:30,6.5 ,0,66,0,20.2 ,0,63.0 ,0,17.3 ,0,,1
2002/11/4 18:45,6.6 ,2,64,2,20.0 ,2,60.5 ,2,17.6 ,2,,1
2002/11/4 19:00,6.6 ,0,62,0,19.7 ,0,58.0 ,0,17.8 ,0,,1
2002/11/4 19:15,6.7 ,2,59,2,19.5 ,2,58.0 ,2,17.9 ,2,,1
2002/11/4 19:30,6.8 ,0,55,0,19.2 ,0,58.0 ,0,17.9 ,0,,1
2002/11/4 19:45,6.8 ,2,55,2,19.1 ,2,58.0 ,2,18.0 ,2,,1
2002/11/4 20:00,6.7 ,0,55,0,19.0 ,0,58.0 ,0,18.0 ,0,,1
2002/11/4 20:15,6.2 ,2,60,2,19.3 ,2,59.5 ,2,17.9 ,2,,1
2002/11/4 20:30,5.7 ,0,64,0,19.5 ,0,61.0 ,0,17.8 ,0,,1
2002/11/4 20:45,5.6 ,2,65,2,19.6 ,2,61.5 ,2,17.8 ,2,,1
2002/11/4 21:00,5.5 ,0,65,0,19.7 ,0,62.0 ,0,17.8 ,0,,1
2002/11/4 21:15,4.8 ,2,71,2,19.8 ,2,62.0 ,2,17.8 ,2,,1
2002/11/4 21:30,4.1 ,0,77,0,19.8 ,0,62.0 ,0,17.8 ,0,,1
2002/11/4 21:45,4.6 ,2,74,2,19.5 ,2,60.5 ,2,17.9 ,2,,1
2002/11/4 22:00,5.1 ,0,71,0,19.2 ,0,59.0 ,0,17.9 ,0,,1
2002/11/4 22:15,5.2 ,2,71,2,19.1 ,2,60.0 ,2,17.9 ,2,,1
2002/11/4 22:30,5.3 ,0,71,0,18.9 ,0,61.0 ,0,17.8 ,0,,1
2002/11/4 22:45,4.9 ,2,73,2,18.8 ,2,61.0 ,2,17.8 ,2,,1
2002/11/4 23:00,4.5 ,0,75,0,18.7 ,0,61.0 ,0,17.7 ,0,,1
2002/11/4 23:15,4.3 ,2,76,2,18.7 ,2,61.0 ,2,17.7 ,2,,1
2002/11/4 23:30,4.1 ,0,76,0,18.6 ,0,61.0 ,0,17.6 ,0,,1
2002/11/4 23:45,4.1 ,2,76,2,18.5 ,2,60.5 ,2,17.6 ,2,,1
2002/11/5 0:00,4.0 ,0,76,0,18.4 ,0,60.0 ,0,17.5 ,0,,1
2002/11/5 0:15,4.1 ,2,76,2,18.4 ,2,59.5 ,2,17.5 ,2,,1
2002/11/5 0:30,4.2 ,0,76,0,18.4 ,0,59.0 ,0,17.4 ,0,,1
2002/11/5 0:45,4.1 ,2,76,2,18.4 ,2,59.0 ,2,17.4 ,2,,1
2002/11/5 1:00,3.9 ,0,76,0,18.3 ,0,59.0 ,0,17.3 ,0,,1
2002/11/5 1:15,3.8 ,2,78,2,18.3 ,2,58.5 ,2,17.3 ,2,,1
2002/11/5 1:30,3.6 ,0,79,0,18.2 ,0,58.0 ,0,17.2 ,0,,1
2002/11/5 1:45,3.3 ,2,80,2,18.2 ,2,57.5 ,2,17.2 ,2,,1
2002/11/5 2:00,3.0 ,0,80,0,18.1 ,0,57.0 ,0,17.1 ,0,,1
2002/11/5 2:15,3.1 ,2,80,2,18.1 ,2,57.0 ,2,17.1 ,2,,1
2002/11/5 2:30,3.1 ,0,79,0,18.0 ,0,57.0 ,0,17.0 ,0,,1
2002/11/5 2:45,3.1 ,2,79,2,18.0 ,2,56.5 ,2,17.0 ,2,,1
2002/11/5 3:00,3.0 ,0,79,0,17.9 ,0,56.0 ,0,17.0 ,0,,1
2002/11/5 3:15,2.9 ,2,79,2,17.9 ,2,56.0 ,2,17.0 ,2,,1
2002/11/5 3:30,2.8 ,0,79,0,17.8 ,0,56.0 ,0,16.9 ,0,,1
2002/11/5 3:45,2.8 ,2,80,2,17.8 ,2,55.5 ,2,16.9 ,2,,1
2002/11/5 4:00,2.7 ,0,81,0,17.8 ,0,55.0 ,0,16.8 ,0,,1
2002/11/5 4:15,2.5 ,2,81,2,17.8 ,2,54.5 ,2,16.8 ,2,,1
2002/11/5 4:30,2.2 ,0,80,0,17.7 ,0,54.0 ,0,16.7 ,0,,1
2002/11/5 4:45,2.3 ,2,81,2,17.7 ,2,54.0 ,2,16.7 ,2,,1
2002/11/5 5:00,2.4 ,0,81,0,17.6 ,0,54.0 ,0,16.7 ,0,,1
2002/11/5 5:15,2.4 ,2,81,2,17.6 ,2,54.0 ,2,16.7 ,2,,1
2002/11/5 5:30,2.4 ,0,81,0,17.6 ,0,54.0 ,0,16.7 ,0,,1
2002/11/5 5:45,2.2 ,2,81,2,17.6 ,2,53.5 ,2,16.7 ,2,,1
2002/11/5 6:00,2.0 ,0,80,0,17.5 ,0,53.0 ,0,16.6 ,0,,1
2002/11/5 6:15,1.5 ,2,86,2,17.6 ,2,55.0 ,2,17.0 ,2,,1
2002/11/5 6:30,0.9 ,0,91,0,17.7 ,0,57.0 ,0,17.3 ,0,,1
2002/11/5 6:45,1.8 ,2,89,2,18.2 ,2,58.5 ,2,17.3 ,2,,1
2002/11/5 7:00,2.6 ,0,86,0,18.6 ,0,60.0 ,0,17.3 ,0,,1
2002/11/5 7:15,2.8 ,2,85,2,18.6 ,2,57.0 ,2,17.5 ,2,,1
2002/11/5 7:30,3.0 ,0,84,0,18.6 ,0,54.0 ,0,17.7 ,0,,1
2002/11/5 7:45,4.2 ,2,76,2,18.5 ,2,54.0 ,2,17.7 ,2,,1
2002/11/5 8:00,5.4 ,0,68,0,18.4 ,0,54.0 ,0,17.6 ,0,,1
2002/11/5 8:15,5.3 ,2,68,2,18.3 ,2,53.5 ,2,17.6 ,2,,1
2002/11/5 8:30,5.2 ,0,68,0,18.2 ,0,53.0 ,0,17.6 ,0,,1
2002/11/5 8:45,5.7 ,2,68,2,18.1 ,2,53.0 ,2,17.6 ,2,,1
2002/11/5 9:00,6.1 ,0,68,0,18.0 ,0,53.0 ,0,17.5 ,0,,1
2002/11/5 9:15,6.7 ,2,66,2,18.0 ,2,53.0 ,2,17.5 ,2,,1
2002/11/5 9:30,7.2 ,0,63,0,17.9 ,0,53.0 ,0,17.5 ,0,,1
2002/11/5 9:45,7.4 ,2,63,2,17.9 ,2,53.5 ,2,17.5 ,2,,1
2002/11/5 10:00,7.5 ,0,62,0,17.9 ,0,54.0 ,0,17.4 ,0,,1
2002/11/5 10:15,8.4 ,2,55,2,17.9 ,2,53.5 ,2,17.4 ,2,,1
2002/11/5 10:30,9.2 ,0,47,0,17.8 ,0,53.0 ,0,17.3 ,0,,1
2002/11/5 10:45,8.7 ,2,50,2,17.8 ,2,52.5 ,2,17.2 ,2,,1
2002/11/5 11:00,8.1 ,0,53,0,17.8 ,0,52.0 ,0,17.1 ,0,,1
2002/11/5 11:15,8.1 ,2,53,2,17.8 ,2,51.5 ,2,17.0 ,2,,1
2002/11/5 11:30,8.1 ,0,53,0,17.7 ,0,51.0 ,0,16.9 ,0,,1
2002/11/5 11:45,8.1 ,2,55,2,17.7 ,2,50.5 ,2,16.9 ,2,,1
2002/11/5 12:00,8.1 ,0,56,0,17.6 ,0,50.0 ,0,16.8 ,0,,1
2002/11/5 12:15,7.8 ,2,58,2,17.6 ,2,50.0 ,2,16.7 ,2,,1
2002/11/5 12:30,7.5 ,0,59,0,17.6 ,0,50.0 ,0,16.6 ,0,,1
2002/11/5 12:45,7.7 ,2,59,2,17.6 ,2,50.0 ,2,16.6 ,2,,1
2002/11/5 13:00,7.9 ,0,58,0,17.5 ,0,50.0 ,0,16.5 ,0,,1
2002/11/5 13:15,8.0 ,2,58,2,17.5 ,2,49.5 ,2,16.5 ,2,,1
2002/11/5 13:30,8.1 ,0,57,0,17.4 ,0,49.0 ,0,16.4 ,0,,1
2002/11/5 13:45,8.2 ,2,58,2,17.5 ,2,49.0 ,2,16.4 ,2,,1
2002/11/5 14:00,8.2 ,0,58,0,17.5 ,0,49.0 ,0,16.3 ,0,,1
2002/11/5 14:15,7.9 ,2,58,2,17.5 ,2,49.0 ,2,16.3 ,2,,1
2002/11/5 14:30,7.6 ,0,58,0,17.4 ,0,49.0 ,0,16.2 ,0,,1
2002/11/5 14:45,7.5 ,2,62,2,17.4 ,2,48.5 ,2,16.2 ,2,,1
2002/11/5 15:00,7.3 ,0,65,0,17.4 ,0,48.0 ,0,16.1 ,0,,1
2002/11/5 15:15,7.3 ,2,66,2,17.4 ,2,48.0 ,2,16.1 ,2,,1
2002/11/5 15:30,7.2 ,0,66,0,17.3 ,0,48.0 ,0,16.0 ,0,,1
2002/11/5 15:45,6.9 ,2,69,2,17.3 ,2,48.0 ,2,16.0 ,2,,1
2002/11/5 16:00,6.5 ,0,71,0,17.3 ,0,48.0 ,0,16.0 ,0,,1
2002/11/5 16:15,6.4 ,2,71,2,17.3 ,2,48.0 ,2,16.0 ,2,,1
2002/11/5 16:30,6.2 ,0,70,0,17.2 ,0,48.0 ,0,15.9 ,0,,1
2002/11/5 16:45,6.0 ,2,74,2,17.2 ,2,48.0 ,2,15.9 ,2,,1
2002/11/5 17:00,5.8 ,0,77,0,17.1 ,0,48.0 ,0,15.8 ,0,,1
2002/11/5 17:15,5.8 ,2,77,2,17.1 ,2,48.0 ,2,15.8 ,2,,1
2002/11/5 17:30,5.7 ,0,76,0,17.0 ,0,48.0 ,0,15.7 ,0,,1
2002/11/5 17:45,5.5 ,2,79,2,17.0 ,2,48.0 ,2,15.7 ,2,,1
2002/11/5 18:00,5.2 ,0,82,0,17.0 ,0,48.0 ,0,15.6 ,0,,1
2002/11/5 18:15,5.3 ,2,83,2,17.0 ,2,48.0 ,2,15.6 ,2,,1
2002/11/5 18:30,5.4 ,0,84,0,16.9 ,0,48.0 ,0,15.5 ,0,,1
2002/11/5 18:45,5.1 ,2,83,2,16.9 ,2,48.0 ,2,15.5 ,2,,1
2002/11/5 19:00,4.8 ,0,82,0,16.8 ,0,48.0 ,0,15.5 ,0,,1
2002/11/5 19:15,4.8 ,2,85,2,16.8 ,2,47.5 ,2,15.5 ,2,,1
2002/11/5 19:30,4.8 ,0,87,0,16.7 ,0,47.0 ,0,15.4 ,0,,1
2002/11/5 19:45,4.9 ,2,86,2,16.7 ,2,47.5 ,2,15.4 ,2,,1
2002/11/5 20:00,5.0 ,0,84,0,16.7 ,0,48.0 ,0,15.3 ,0,,1
2002/11/5 20:15,5.1 ,2,82,2,16.7 ,2,48.0 ,2,15.3 ,2,,1
2002/11/5 20:30,5.2 ,0,79,0,16.7 ,0,48.0 ,0,15.2 ,0,,1
2002/11/5 20:45,4.5 ,2,82,2,16.7 ,2,48.0 ,2,15.2 ,2,,1
2002/11/5 21:00,3.7 ,0,84,0,16.6 ,0,48.0 ,0,15.2 ,0,,1
2002/11/5 21:15,3.5 ,2,89,2,16.7 ,2,49.0 ,2,15.6 ,2,,1
2002/11/5 21:30,3.3 ,0,94,0,16.8 ,0,50.0 ,0,15.9 ,0,,1
2002/11/5 21:45,3.3 ,2,93,2,17.0 ,2,51.0 ,2,16.0 ,2,,1
2002/11/5 22:00,3.3 ,0,92,0,17.2 ,0,52.0 ,0,16.0 ,0,,1
2002/11/5 22:15,3.5 ,2,89,2,17.3 ,2,54.0 ,2,16.4 ,2,,1
2002/11/5 22:30,3.7 ,0,86,0,17.3 ,0,56.0 ,0,16.8 ,0,,1
2002/11/5 22:45,4.0 ,2,86,2,17.5 ,2,56.0 ,2,17.1 ,2,,1
2002/11/5 23:00,4.3 ,0,86,0,17.7 ,0,56.0 ,0,17.3 ,0,,1
2002/11/5 23:15,4.5 ,2,85,2,17.5 ,2,55.0 ,2,17.2 ,2,,1
2002/11/5 23:30,4.6 ,0,83,0,17.3 ,0,54.0 ,0,17.0 ,0,,1
2002/11/5 23:45,4.5 ,2,85,2,17.2 ,2,53.0 ,2,16.9 ,2,,1
2002/11/6 0:00,4.4 ,0,86,0,17.1 ,0,52.0 ,0,16.7 ,0,,1
2002/11/6 0:15,4.5 ,2,83,2,17.0 ,2,52.0 ,2,16.6 ,2,,1
2002/11/6 0:30,4.6 ,0,80,0,16.9 ,0,52.0 ,0,16.5 ,0,,1
2002/11/6 0:45,4.5 ,2,81,2,16.9 ,2,51.5 ,2,16.5 ,2,,1
2002/11/6 1:00,4.4 ,0,82,0,16.9 ,0,51.0 ,0,16.4 ,0,,1
2002/11/6 1:15,4.2 ,2,83,2,16.9 ,2,50.5 ,2,16.4 ,2,,1
2002/11/6 1:30,3.9 ,0,83,0,16.8 ,0,50.0 ,0,16.3 ,0,,1
2002/11/6 1:45,3.8 ,2,83,2,16.8 ,2,50.0 ,2,16.3 ,2,,1
2002/11/6 2:00,3.6 ,0,83,0,16.8 ,0,50.0 ,0,16.2 ,0,,1
2002/11/6 2:15,3.6 ,2,84,2,16.8 ,2,49.5 ,2,16.2 ,2,,1
2002/11/6 2:30,3.6 ,0,84,0,16.7 ,0,49.0 ,0,16.1 ,0,,1
2002/11/6 2:45,3.2 ,2,85,2,16.7 ,2,49.0 ,2,16.1 ,2,,1
2002/11/6 3:00,2.8 ,0,85,0,16.7 ,0,49.0 ,0,16.0 ,0,,1
2002/11/6 3:15,2.9 ,2,85,2,16.7 ,2,48.5 ,2,16.0 ,2,,1
2002/11/6 3:30,3.0 ,0,85,0,16.6 ,0,48.0 ,0,15.9 ,0,,1
2002/11/6 3:45,3.2 ,2,85,2,16.6 ,2,48.0 ,2,15.9 ,2,,1
2002/11/6 4:00,3.3 ,0,84,0,16.5 ,0,48.0 ,0,15.9 ,0,,1
2002/11/6 4:15,3.3 ,2,83,2,16.5 ,2,48.0 ,2,15.9 ,2,,1
2002/11/6 4:30,3.3 ,0,81,0,16.5 ,0,48.0 ,0,15.8 ,0,,1
2002/11/6 4:45,3.4 ,2,81,2,16.5 ,2,47.5 ,2,15.8 ,2,,1
2002/11/6 5:00,3.4 ,0,80,0,16.5 ,0,47.0 ,0,15.8 ,0,,1
2002/11/6 5:15,3.3 ,2,79,2,16.5 ,2,47.0 ,2,15.8 ,2,,1
2002/11/6 5:30,3.2 ,0,78,0,16.5 ,0,47.0 ,0,15.7 ,0,,1
2002/11/6 5:45,2.4 ,2,81,2,16.5 ,2,47.5 ,2,15.8 ,2,,1
2002/11/6 6:00,1.6 ,0,84,0,16.4 ,0,48.0 ,0,15.8 ,0,,1
2002/11/6 6:15,1.6 ,2,88,2,16.5 ,2,49.0 ,2,16.1 ,2,,1
2002/11/6 6:30,1.5 ,0,91,0,16.6 ,0,50.0 ,0,16.4 ,0,,1
2002/11/6 6:45,1.9 ,2,92,2,17.0 ,2,50.5 ,2,16.5 ,2,,1
2002/11/6 7:00,2.2 ,0,93,0,17.3 ,0,51.0 ,0,16.5 ,0,,1
2002/11/6 7:15,3.0 ,2,91,2,17.3 ,2,52.0 ,2,16.8 ,2,,1
2002/11/6 7:30,3.7 ,0,89,0,17.3 ,0,53.0 ,0,17.0 ,0,,1
2002/11/6 7:45,4.5 ,2,82,2,17.3 ,2,55.0 ,2,17.0 ,2,,1
2002/11/6 8:00,5.3 ,0,75,0,17.2 ,0,57.0 ,0,16.9 ,0,,1
2002/11/6 8:15,5.8 ,2,71,2,17.2 ,2,57.0 ,2,16.9 ,2,,1
2002/11/6 8:30,6.3 ,0,67,0,17.2 ,0,57.0 ,0,16.8 ,0,,1
2002/11/6 8:45,6.3 ,2,70,2,17.1 ,2,56.5 ,2,16.7 ,2,,1
2002/11/6 9:00,6.3 ,0,73,0,17.0 ,0,56.0 ,0,16.6 ,0,,1
2002/11/6 9:15,6.8 ,2,69,2,17.0 ,2,55.5 ,2,16.5 ,2,,1
2002/11/6 9:30,7.2 ,0,65,0,16.9 ,0,55.0 ,0,16.4 ,0,,1
2002/11/6 9:45,7.4 ,2,64,2,16.9 ,2,55.0 ,2,16.3 ,2,,1
2002/11/6 10:00,7.5 ,0,62,0,16.8 ,0,55.0 ,0,16.2 ,0,,1
2002/11/6 10:15,7.9 ,2,60,2,16.8 ,2,54.5 ,2,16.2 ,2,,1
2002/11/6 10:30,8.2 ,0,57,0,16.8 ,0,54.0 ,0,16.1 ,0,,1
2002/11/6 10:45,8.2 ,2,56,2,16.8 ,2,54.0 ,2,16.0 ,2,,1
2002/11/6 11:00,8.1 ,0,55,0,16.7 ,0,54.0 ,0,15.9 ,0,,1
2002/11/6 11:15,7.8 ,2,59,2,16.7 ,2,53.5 ,2,15.9 ,2,,1
2002/11/6 11:30,7.4 ,0,62,0,16.7 ,0,53.0 ,0,15.8 ,0,,1
2002/11/6 11:45,7.8 ,2,60,2,16.7 ,2,52.5 ,2,15.8 ,2,,1
2002/11/6 12:00,8.2 ,0,58,0,16.6 ,0,52.0 ,0,15.7 ,0,,1
2002/11/6 12:15,8.4 ,2,58,2,16.6 ,2,51.5 ,2,15.7 ,2,,1
2002/11/6 12:30,8.5 ,0,58,0,16.6 ,0,51.0 ,0,15.6 ,0,,1
2002/11/6 12:45,8.5 ,2,57,2,16.6 ,2,51.0 ,2,15.6 ,2,,1
2002/11/6 13:00,8.4 ,0,55,0,16.5 ,0,51.0 ,0,15.5 ,0,,1
2002/11/6 13:15,8.6 ,2,56,2,16.5 ,2,50.5 ,2,15.5 ,2,,1
2002/11/6 13:30,8.7 ,0,56,0,16.5 ,0,50.0 ,0,15.4 ,0,,1
2002/11/6 13:45,8.8 ,2,56,2,16.5 ,2,50.0 ,2,15.4 ,2,,1
2002/11/6 14:00,8.8 ,0,55,0,16.5 ,0,50.0 ,0,15.4 ,0,,1
2002/11/6 14:15,8.7 ,2,58,2,16.5 ,2,49.5 ,2,15.4 ,2,,1
2002/11/6 14:30,8.6 ,0,61,0,16.5 ,0,49.0 ,0,15.3 ,0,,1
2002/11/6 14:45,8.6 ,2,60,2,16.5 ,2,49.0 ,2,15.3 ,2,,1
2002/11/6 15:00,8.6 ,0,59,0,16.5 ,0,49.0 ,0,15.2 ,0,,1
2002/11/6 15:15,8.5 ,2,59,2,16.5 ,2,49.0 ,2,15.2 ,2,,1
2002/11/6 15:30,8.3 ,0,59,0,16.4 ,0,49.0 ,0,15.2 ,0,,1
2002/11/6 15:45,8.2 ,2,59,2,16.4 ,2,48.5 ,2,15.2 ,2,,1
2002/11/6 16:00,8.1 ,0,58,0,16.4 ,0,48.0 ,0,15.1 ,0,,1
2002/11/6 16:15,8.1 ,2,59,2,16.4 ,2,48.0 ,2,15.1 ,2,,1
2002/11/6 16:30,8.0 ,0,59,0,16.4 ,0,48.0 ,0,15.0 ,0,,1
2002/11/6 16:45,7.9 ,2,60,2,16.4 ,2,48.0 ,2,15.0 ,2,,1
2002/11/6 17:00,7.8 ,0,60,0,16.3 ,0,48.0 ,0,15.0 ,0,,1
2002/11/6 17:15,7.7 ,2,61,2,16.3 ,2,47.5 ,2,15.0 ,2,,1
2002/11/6 17:30,7.5 ,0,61,0,16.3 ,0,47.0 ,0,14.9 ,0,,1
2002/11/6 17:45,7.5 ,2,63,2,16.3 ,2,47.0 ,2,14.9 ,2,,1
2002/11/6 18:00,7.4 ,0,64,0,16.3 ,0,47.0 ,0,14.9 ,0,,1
2002/11/6 18:15,7.2 ,2,69,2,16.3 ,2,47.0 ,2,14.9 ,2,,1
2002/11/6 18:30,6.9 ,0,73,0,16.3 ,0,47.0 ,0,14.8 ,0,,1
2002/11/6 18:45,6.9 ,2,70,2,16.4 ,2,47.0 ,2,14.8 ,2,,1
2002/11/6 19:00,6.9 ,0,66,0,16.4 ,0,47.0 ,0,14.8 ,0,,1
2002/11/6 19:15,5.9 ,2,72,2,16.4 ,2,47.5 ,2,14.8 ,2,,1
2002/11/6 19:30,4.8 ,0,77,0,16.4 ,0,48.0 ,0,14.8 ,0,,1
2002/11/6 19:45,4.4 ,2,83,2,16.8 ,2,50.0 ,2,15.1 ,2,,1
2002/11/6 20:00,4.0 ,0,89,0,17.1 ,0,52.0 ,0,15.3 ,0,,1
2002/11/6 20:15,4.0 ,2,89,2,17.6 ,2,55.5 ,2,15.4 ,2,,1
2002/11/6 20:30,4.0 ,0,89,0,18.0 ,0,59.0 ,0,15.4 ,0,,1
2002/11/6 20:45,4.0 ,2,89,2,18.1 ,2,57.5 ,2,15.4 ,2,,1
2002/11/6 21:00,4.0 ,0,88,0,18.1 ,0,56.0 ,0,15.4 ,0,,1
2002/11/6 21:15,3.8 ,2,89,2,18.8 ,2,59.5 ,2,15.9 ,2,,1
2002/11/6 21:30,3.6 ,0,89,0,19.5 ,0,63.0 ,0,16.4 ,0,,1
2002/11/6 21:45,3.5 ,2,91,2,19.7 ,2,67.0 ,2,16.3 ,2,,1
2002/11/6 22:00,3.3 ,0,92,0,19.9 ,0,71.0 ,0,16.1 ,0,,1
2002/11/6 22:15,3.3 ,2,93,2,20.1 ,2,70.0 ,2,16.2 ,2,,1
2002/11/6 22:30,3.2 ,0,94,0,20.2 ,0,69.0 ,0,16.3 ,0,,1
2002/11/6 22:45,3.7 ,2,90,2,19.3 ,2,65.5 ,2,16.6 ,2,,1
2002/11/6 23:00,4.1 ,0,86,0,18.4 ,0,62.0 ,0,16.8 ,0,,1
2002/11/6 23:15,4.2 ,2,84,2,18.1 ,2,60.5 ,2,16.8 ,2,,1
2002/11/6 23:30,4.2 ,0,82,0,17.8 ,0,59.0 ,0,16.8 ,0,,1
2002/11/6 23:45,4.1 ,2,83,2,17.6 ,2,58.0 ,2,16.7 ,2,,1
2002/11/7 0:00,4.0 ,0,83,0,17.4 ,0,57.0 ,0,16.6 ,0,,1
2002/11/7 0:15,4.0 ,2,83,2,17.3 ,2,56.5 ,2,16.5 ,2,,1
2002/11/7 0:30,3.9 ,0,83,0,17.1 ,0,56.0 ,0,16.4 ,0,,1
2002/11/7 0:45,3.9 ,2,83,2,17.1 ,2,55.5 ,2,16.4 ,2,,1
2002/11/7 1:00,3.8 ,0,83,0,17.0 ,0,55.0 ,0,16.3 ,0,,1
2002/11/7 1:15,3.7 ,2,83,2,17.0 ,2,54.5 ,2,16.3 ,2,,1
2002/11/7 1:30,3.6 ,0,83,0,16.9 ,0,54.0 ,0,16.2 ,0,,1
2002/11/7 1:45,3.5 ,2,83,2,16.9 ,2,53.5 ,2,16.2 ,2,,1
2002/11/7 2:00,3.4 ,0,83,0,16.8 ,0,53.0 ,0,16.1 ,0,,1
2002/11/7 2:15,3.2 ,2,84,2,16.8 ,2,53.0 ,2,16.1 ,2,,1
2002/11/7 2:30,3.0 ,0,84,0,16.7 ,0,53.0 ,0,16.0 ,0,,1
2002/11/7 2:45,3.0 ,2,85,2,16.7 ,2,52.5 ,2,16.0 ,2,,1
2002/11/7 3:00,2.9 ,0,85,0,16.6 ,0,52.0 ,0,15.9 ,0,,1
2002/11/7 3:15,2.9 ,2,85,2,16.6 ,2,52.0 ,2,15.9 ,2,,1
2002/11/7 3:30,2.8 ,0,84,0,16.6 ,0,52.0 ,0,15.8 ,0,,1
2002/11/7 3:45,2.7 ,2,85,2,16.6 ,2,51.5 ,2,15.8 ,2,,1
2002/11/7 4:00,2.6 ,0,85,0,16.5 ,0,51.0 ,0,15.7 ,0,,1
2002/11/7 4:15,2.4 ,2,85,2,16.5 ,2,51.0 ,2,15.7 ,2,,1
2002/11/7 4:30,2.2 ,0,85,0,16.5 ,0,51.0 ,0,15.6 ,0,,1
2002/11/7 4:45,2.2 ,2,86,2,16.5 ,2,51.0 ,2,15.6 ,2,,1
2002/11/7 5:00,2.1 ,0,86,0,16.4 ,0,51.0 ,0,15.6 ,0,,1
2002/11/7 5:15,2.0 ,2,87,2,16.4 ,2,51.5 ,2,15.6 ,2,,1
2002/11/7 5:30,1.9 ,0,87,0,16.4 ,0,52.0 ,0,15.5 ,0,,1
2002/11/7 5:45,1.9 ,2,88,2,16.4 ,2,51.5 ,2,15.5 ,2,,1
2002/11/7 6:00,1.8 ,0,88,0,16.3 ,0,51.0 ,0,15.5 ,0,,1
2002/11/7 6:15,1.6 ,2,89,2,16.3 ,2,51.5 ,2,15.6 ,2,,1
2002/11/7 6:30,1.3 ,0,89,0,16.3 ,0,52.0 ,0,15.7 ,0,,1
2002/11/7 6:45,1.6 ,2,89,2,16.7 ,2,54.0 ,2,16.0 ,2,,1
2002/11/7 7:00,1.9 ,0,89,0,17.1 ,0,56.0 ,0,16.3 ,0,,1
2002/11/7 7:15,2.5 ,2,87,2,17.3 ,2,56.0 ,2,16.5 ,2,,1
2002/11/7 7:30,3.0 ,0,84,0,17.4 ,0,56.0 ,0,16.6 ,0,,1
2002/11/7 7:45,4.5 ,2,77,2,17.3 ,2,56.0 ,2,16.6 ,2,,1
2002/11/7 8:00,5.9 ,0,70,0,17.2 ,0,56.0 ,0,16.6 ,0,,1
2002/11/7 8:15,6.7 ,2,65,2,17.2 ,2,56.5 ,2,16.5 ,2,,1
2002/11/7 8:30,7.5 ,0,60,0,17.1 ,0,57.0 ,0,16.4 ,0,,1
2002/11/7 8:45,8.1 ,2,58,2,17.1 ,2,56.5 ,2,16.3 ,2,,1
2002/11/7 9:00,8.7 ,0,55,0,17.1 ,0,56.0 ,0,16.2 ,0,,1
2002/11/7 9:15,9.2 ,2,55,2,17.0 ,2,56.0 ,2,16.2 ,2,,1
2002/11/7 9:30,9.7 ,0,54,0,16.9 ,0,56.0 ,0,16.1 ,0,,1
2002/11/7 9:45,10.5 ,2,51,2,16.9 ,2,56.0 ,2,16.0 ,2,,1
2002/11/7 10:00,11.2 ,0,47,0,16.8 ,0,56.0 ,0,15.9 ,0,,1
2002/11/7 10:15,11.4 ,2,47,2,16.8 ,2,55.5 ,2,15.8 ,2,,1
2002/11/7 10:30,11.5 ,0,46,0,16.7 ,0,55.0 ,0,15.7 ,0,,1
2002/11/7 10:45,11.8 ,2,43,2,16.7 ,2,55.0 ,2,15.7 ,2,,1
2002/11/7 11:00,12.0 ,0,40,0,16.6 ,0,55.0 ,0,15.6 ,0,,1
2002/11/7 11:15,11.7 ,2,44,2,16.6 ,2,54.5 ,2,15.6 ,2,,1
2002/11/7 11:30,11.4 ,0,47,0,16.6 ,0,54.0 ,0,15.5 ,0,,1
2002/11/7 11:45,11.4 ,2,49,2,16.6 ,2,53.5 ,2,15.5 ,2,,1
2002/11/7 12:00,11.4 ,0,50,0,16.6 ,0,53.0 ,0,15.4 ,0,,1
2002/11/7 12:15,11.5 ,2,50,2,16.6 ,2,53.0 ,2,15.4 ,2,,1
2002/11/7 12:30,11.5 ,0,50,0,16.5 ,0,53.0 ,0,15.3 ,0,,1
2002/11/7 12:45,11.6 ,2,49,2,16.5 ,2,53.0 ,2,15.3 ,2,,1
2002/11/7 13:00,11.7 ,0,47,0,16.5 ,0,53.0 ,0,15.2 ,0,,1
2002/11/7 13:15,11.7 ,2,47,2,16.5 ,2,53.0 ,2,15.2 ,2,,1
2002/11/7 13:30,11.7 ,0,47,0,16.5 ,0,53.0 ,0,15.2 ,0,,1
2002/11/7 13:45,11.9 ,2,46,2,16.5 ,2,52.5 ,2,15.2 ,2,,1
2002/11/7 14:00,12.0 ,0,45,0,16.5 ,0,52.0 ,0,15.1 ,0,,1
2002/11/7 14:15,12.1 ,2,44,2,16.5 ,2,52.0 ,2,15.1 ,2,,1
2002/11/7 14:30,12.2 ,0,43,0,16.4 ,0,52.0 ,0,15.1 ,0,,1
2002/11/7 14:45,12.2 ,2,43,2,16.4 ,2,51.5 ,2,15.1 ,2,,1
2002/11/7 15:00,12.1 ,0,43,0,16.4 ,0,51.0 ,0,15.0 ,0,,1
2002/11/7 15:15,12.1 ,2,44,2,16.4 ,2,51.0 ,2,15.0 ,2,,1
2002/11/7 15:30,12.1 ,0,44,0,16.4 ,0,51.0 ,0,15.0 ,0,,1
2002/11/7 15:45,12.0 ,2,45,2,16.4 ,2,51.0 ,2,15.0 ,2,,1
2002/11/7 16:00,11.8 ,0,45,0,16.3 ,0,51.0 ,0,14.9 ,0,,1
2002/11/7 16:15,11.7 ,2,47,2,16.4 ,2,50.5 ,2,14.9 ,2,,1
2002/11/7 16:30,11.5 ,0,48,0,16.4 ,0,50.0 ,0,14.9 ,0,,1
2002/11/7 16:45,10.2 ,2,54,2,16.4 ,2,50.5 ,2,15.1 ,2,,1
2002/11/7 17:00,8.8 ,0,59,0,16.4 ,0,51.0 ,0,15.2 ,0,,1
2002/11/7 17:15,8.8 ,2,57,2,17.5 ,2,59.5 ,2,15.4 ,2,,1
2002/11/7 17:30,8.8 ,0,54,0,18.5 ,0,68.0 ,0,15.5 ,0,,1
2002/11/7 17:45,8.1 ,2,62,2,19.1 ,2,67.5 ,2,15.4 ,2,,1
2002/11/7 18:00,7.4 ,0,69,0,19.6 ,0,67.0 ,0,15.3 ,0,,1
2002/11/7 18:15,8.0 ,2,62,2,19.5 ,2,64.5 ,2,15.3 ,2,,1
2002/11/7 18:30,8.6 ,0,54,0,19.3 ,0,62.0 ,0,15.2 ,0,,1
2002/11/7 18:45,8.1 ,2,57,2,19.4 ,2,60.0 ,2,15.2 ,2,,1
2002/11/7 19:00,7.5 ,0,59,0,19.5 ,0,58.0 ,0,15.1 ,0,,1
2002/11/7 19:15,7.0 ,2,65,2,19.6 ,2,57.0 ,2,15.1 ,2,,1
2002/11/7 19:30,6.4 ,0,71,0,19.7 ,0,56.0 ,0,15.0 ,0,,1
2002/11/7 19:45,5.9 ,2,76,2,19.7 ,2,54.5 ,2,15.1 ,2,,1
2002/11/7 20:00,5.4 ,0,81,0,19.6 ,0,53.0 ,0,15.1 ,0,,1
2002/11/7 20:15,5.4 ,2,80,2,20.0 ,2,52.5 ,2,15.1 ,2,,1
2002/11/7 20:30,5.3 ,0,79,0,20.3 ,0,52.0 ,0,15.0 ,0,,1
2002/11/7 20:45,5.5 ,2,78,2,20.2 ,2,52.5 ,2,15.0 ,2,,1
2002/11/7 21:00,5.7 ,0,77,0,20.0 ,0,53.0 ,0,14.9 ,0,,1
2002/11/7 21:15,5.1 ,2,81,2,19.8 ,2,53.5 ,2,15.2 ,2,,1
2002/11/7 21:30,4.4 ,0,84,0,19.6 ,0,54.0 ,0,15.4 ,0,,1
2002/11/7 21:45,4.5 ,2,85,2,19.9 ,2,57.0 ,2,15.4 ,2,,1
2002/11/7 22:00,4.6 ,0,85,0,20.1 ,0,60.0 ,0,15.3 ,0,,1
2002/11/7 22:15,5.3 ,2,83,2,19.8 ,2,58.5 ,2,15.6 ,2,,1
2002/11/7 22:30,5.9 ,0,81,0,19.4 ,0,57.0 ,0,15.8 ,0,,1
2002/11/7 22:45,6.1 ,2,76,2,18.9 ,2,57.0 ,2,16.1 ,2,,1
2002/11/7 23:00,6.2 ,0,70,0,18.4 ,0,57.0 ,0,16.3 ,0,,1
2002/11/7 23:15,5.8 ,2,72,2,18.2 ,2,57.0 ,2,16.4 ,2,,1
2002/11/7 23:30,5.4 ,0,74,0,18.0 ,0,57.0 ,0,16.4 ,0,,1
2002/11/7 23:45,5.4 ,2,75,2,17.8 ,2,56.5 ,2,16.4 ,2,,1
2002/11/8 0:00,5.3 ,0,75,0,17.6 ,0,56.0 ,0,16.4 ,0,,1
2002/11/8 0:15,5.5 ,2,75,2,17.5 ,2,55.5 ,2,16.4 ,2,,1
2002/11/8 0:30,5.7 ,0,74,0,17.4 ,0,55.0 ,0,16.3 ,0,,1
2002/11/8 0:45,5.8 ,2,74,2,17.4 ,2,55.0 ,2,16.3 ,2,,1
2002/11/8 1:00,5.8 ,0,73,0,17.3 ,0,55.0 ,0,16.2 ,0,,1
2002/11/8 1:15,5.5 ,2,74,2,17.3 ,2,54.5 ,2,16.2 ,2,,1
2002/11/8 1:30,5.1 ,0,75,0,17.2 ,0,54.0 ,0,16.1 ,0,,1
2002/11/8 1:45,5.1 ,2,76,2,17.2 ,2,54.0 ,2,16.1 ,2,,1
2002/11/8 2:00,5.0 ,0,76,0,17.1 ,0,54.0 ,0,16.0 ,0,,1
2002/11/8 2:15,4.9 ,2,77,2,17.1 ,2,53.5 ,2,16.0 ,2,,1
2002/11/8 2:30,4.8 ,0,78,0,17.0 ,0,53.0 ,0,15.9 ,0,,1
2002/11/8 2:45,4.7 ,2,79,2,17.0 ,2,53.0 ,2,15.9 ,2,,1
2002/11/8 3:00,4.5 ,0,79,0,16.9 ,0,53.0 ,0,15.8 ,0,,1
2002/11/8 3:15,4.5 ,2,80,2,16.9 ,2,52.5 ,2,15.8 ,2,,1
2002/11/8 3:30,4.4 ,0,80,0,16.9 ,0,52.0 ,0,15.7 ,0,,1
2002/11/8 3:45,4.4 ,2,81,2,16.9 ,2,52.0 ,2,15.7 ,2,,1
2002/11/8 4:00,4.4 ,0,81,0,16.8 ,0,52.0 ,0,15.6 ,0,,1
2002/11/8 4:15,4.3 ,2,81,2,16.8 ,2,52.0 ,2,15.6 ,2,,1
2002/11/8 4:30,4.2 ,0,81,0,16.7 ,0,52.0 ,0,15.6 ,0,,1
2002/11/8 4:45,4.2 ,2,82,2,16.7 ,2,51.5 ,2,15.6 ,2,,1
2002/11/8 5:00,4.1 ,0,83,0,16.7 ,0,51.0 ,0,15.5 ,0,,1
2002/11/8 5:15,4.3 ,2,84,2,16.7 ,2,51.0 ,2,15.5 ,2,,1
2002/11/8 5:30,4.4 ,0,85,0,16.6 ,0,51.0 ,0,15.5 ,0,,1
2002/11/8 5:45,4.3 ,2,85,2,16.6 ,2,51.0 ,2,15.5 ,2,,1
2002/11/8 6:00,4.2 ,0,85,0,16.6 ,0,51.0 ,0,15.5 ,0,,1
2002/11/8 6:15,4.3 ,2,86,2,16.5 ,2,51.0 ,2,15.5 ,2,,1
2002/11/8 6:30,4.4 ,0,86,0,16.4 ,0,51.0 ,0,15.5 ,0,,1
2002/11/8 6:45,3.7 ,2,90,2,16.9 ,2,54.0 ,2,15.8 ,2,,1
2002/11/8 7:00,3.0 ,0,93,0,17.3 ,0,57.0 ,0,16.0 ,0,,1
2002/11/8 7:15,3.3 ,2,95,2,17.5 ,2,56.5 ,2,16.1 ,2,,1
2002/11/8 7:30,3.5 ,0,96,0,17.7 ,0,56.0 ,0,16.1 ,0,,1
2002/11/8 7:45,4.2 ,2,94,2,17.4 ,2,56.5 ,2,16.2 ,2,,1
2002/11/8 8:00,4.9 ,0,91,0,17.0 ,0,57.0 ,0,16.2 ,0,,1
2002/11/8 8:15,5.2 ,2,90,2,16.9 ,2,57.0 ,2,16.2 ,2,,1
2002/11/8 8:30,5.5 ,0,88,0,16.8 ,0,57.0 ,0,16.2 ,0,,1
2002/11/8 8:45,5.9 ,2,85,2,16.8 ,2,57.0 ,2,16.2 ,2,,1
2002/11/8 9:00,6.3 ,0,82,0,16.8 ,0,57.0 ,0,16.2 ,0,,1
2002/11/8 9:15,6.7 ,2,81,2,16.8 ,2,57.0 ,2,16.2 ,2,,1
2002/11/8 9:30,7.1 ,0,79,0,16.7 ,0,57.0 ,0,16.1 ,0,,1
2002/11/8 9:45,7.7 ,2,77,2,16.7 ,2,56.5 ,2,16.1 ,2,,1
2002/11/8 10:00,8.2 ,0,75,0,16.7 ,0,56.0 ,0,16.0 ,0,,1
2002/11/8 10:15,8.5 ,2,73,2,16.7 ,2,55.5 ,2,15.9 ,2,,1
2002/11/8 10:30,8.8 ,0,70,0,16.7 ,0,55.0 ,0,15.8 ,0,,1
2002/11/8 10:45,9.0 ,2,70,2,16.7 ,2,55.0 ,2,15.8 ,2,,1
2002/11/8 11:00,9.1 ,0,70,0,16.6 ,0,55.0 ,0,15.7 ,0,,1